This is the latest recevied weather packets stored in our database for station/object W9GWP. If no packets are shown the sender has not sent any weather packets the latest 10 day(s).
| Time | Temp. | Humidity | Pressure | Rain* | Wind** | Luminosity | Snow |
|---|---|---|---|---|---|---|---|
| 1777521865 | 2.78° C | 94% | 1046 hPa | 0 mm | - | 0 W/m² | - |
| 1777520962 | 3.33° C | 94% | 1045.9 hPa | 0 mm | - | 0 W/m² | - |
| 1777520059 | 3.33° C | 94% | 1046 hPa | 0 mm | - | 0 W/m² | - |
| 1777519155 | 3.33° C | 93% | 1046.1 hPa | 0 mm | - | 0 W/m² | - |
| 1777518254 | 3.89° C | 93% | 1046 hPa | 0 mm | - | 0 W/m² | - |
| 1777517350 | 4.44° C | 92% | 1046.1 hPa | 0 mm | - | 0 W/m² | - |
| 1777516448 | 5° C | 91% | 1046.1 hPa | 0 mm | - | 0 W/m² | - |
| 1777515543 | 5° C | 90% | 1045.9 hPa | 0 mm | - | 0 W/m² | - |
| 1777514639 | 5° C | 88% | 1045.9 hPa | 0 mm | - | 0 W/m² | - |
| 1777513736 | 5.56° C | 88% | 1045.9 hPa | 0 mm | - | 0 W/m² | - |
| 1777512837 | 5.56° C | 88% | 1045.8 hPa | 0 mm | - | 0 W/m² | - |
| 1777511934 | 6.11° C | 88% | 1045.7 hPa | 0 mm | - | 0 W/m² | - |
| 1777511030 | 6.11° C | 88% | 1045.5 hPa | 0 mm | - | 0 W/m² | - |
| 1777510126 | 6.11° C | 88% | 1045.3 hPa | 0 mm | - | 0 W/m² | - |
| 1777509222 | 6.67° C | 88% | 1045.3 hPa | 0 mm | - | 2 W/m² | - |
| 1777508319 | 7.22° C | 84% | 1044.8 hPa | 0 mm | - | 0 W/m² | - |
| 1777507415 | 7.22° C | 84% | 1045 hPa | 0 mm | - | 10 W/m² | - |
| 1777506512 | 7.22° C | 84% | 1044.7 hPa | 0 mm | - | 22 W/m² | - |
| 1777505611 | 7.78° C | 84% | 1044.7 hPa | 0 mm | - | 22 W/m² | - |
| 1777504708 | 7.78° C | 83% | 1044.6 hPa | 0 mm | - | 28 W/m² | - |
| 1777503807 | 7.78° C | 83% | 1044.3 hPa | 0 mm | - | 44 W/m² | - |
| 1777502904 | 7.78° C | 83% | 1044.4 hPa | 0 mm | - | 70 W/m² | - |
| 1777502000 | 7.78° C | 83% | 1044.5 hPa | 0 mm | - | 161 W/m² | - |
| 1777501098 | 7.78° C | 83% | 1044.6 hPa | 0 mm | - | 83 W/m² | - |
| 1777500195 | 8.89° C | 80% | 1044.1 hPa | 0 mm | - | 143 W/m² | - |
* Rain latest hour (hover to see other rain measurements)
** Current wind speed in m/s (hover to see current wind gust speed)